TimeEST,TemperatureF,Dew PointF,Humidity,Sea Level PressureIn,VisibilityMPH,Wind Direction,Wind SpeedMPH,Gust SpeedMPH,PrecipitationIn,Events,Conditions,WindDirDegrees,DateUTC
12:15 AM,35.6,26.6,70,29.98,10.0,WSW,5.8,-,N/A,,Clear,240,2014-01-13 05:15:00
12:35 AM,35.6,26.6,70,29.99,10.0,SW,4.6,-,N/A,,Clear,220,2014-01-13 05:35:00
12:55 AM,35.6,26.6,70,30.00,10.0,SW,3.5,-,N/A,,Clear,230,2014-01-13 05:55:00
1:15 AM,35.6,26.6,70,30.02,10.0,Calm,Calm,-,N/A,,Clear,0,2014-01-13 06:15:00
1:35 AM,33.8,26.6,75,30.03,10.0,Calm,Calm,-,N/A,,Clear,0,2014-01-13 06:35:00
1:55 AM,32.0,26.6,80,30.04,10.0,South,3.5,-,N/A,,Clear,190,2014-01-13 06:55:00
2:15 AM,32.0,26.6,80,30.05,10.0,Calm,Calm,-,N/A,,Clear,0,2014-01-13 07:15:00
2:35 AM,32.0,26.6,80,30.06,10.0,Calm,Calm,-,N/A,,Clear,0,2014-01-13 07:35:00
2:55 AM,33.8,24.8,70,30.07,10.0,SW,3.5,-,N/A,,Clear,230,2014-01-13 07:55:00
3:15 AM,32.0,24.8,75,30.07,10.0,SW,3.5,-,N/A,,Clear,230,2014-01-13 08:15:00
3:35 AM,32.0,26.6,80,30.09,10.0,SSW,3.5,-,N/A,,Clear,210,2014-01-13 08:35:00
3:55 AM,32.0,26.6,80,30.09,10.0,Calm,Calm,-,N/A,,Clear,0,2014-01-13 08:55:00
4:15 AM,32.0,26.6,80,30.10,10.0,SSW,3.5,-,N/A,,Clear,200,2014-01-13 09:15:00
4:35 AM,32.0,26.6,80,30.11,10.0,SSW,3.5,-,N/A,,Clear,210,2014-01-13 09:35:00
4:55 AM,32.0,26.6,80,30.12,10.0,SW,3.5,-,N/A,,Clear,220,2014-01-13 09:55:00
5:15 AM,32.0,26.6,80,30.11,10.0,SW,3.5,-,N/A,,Clear,220,2014-01-13 10:15:00
5:35 AM,32.0,26.6,80,30.11,10.0,South,4.6,-,N/A,,Clear,190,2014-01-13 10:35:00
5:55 AM,32.0,26.6,80,30.12,10.0,SW,4.6,-,N/A,,Clear,220,2014-01-13 10:55:00
6:15 AM,32.0,26.6,80,30.12,10.0,SW,4.6,-,N/A,,Clear,220,2014-01-13 11:15:00
6:35 AM,32.0,26.6,80,30.13,10.0,Calm,Calm,-,N/A,,Clear,0,2014-01-13 11:35:00
6:55 AM,32.0,26.6,80,30.13,10.0,West,3.5,-,N/A,,Clear,270,2014-01-13 11:55:00
7:15 AM,32.0,26.6,80,30.14,10.0,SW,4.6,-,N/A,,Clear,230,2014-01-13 12:15:00
7:35 AM,32.0,26.6,80,30.15,10.0,SW,5.8,-,N/A,,Clear,230,2014-01-13 12:35:00
7:55 AM,33.8,26.6,75,30.15,10.0,SSW,3.5,-,N/A,,Clear,200,2014-01-13 12:55:00
8:15 AM,33.8,28.4,81,30.15,10.0,SW,3.5,-,N/A,,Clear,230,2014-01-13 13:15:00
8:35 AM,35.6,28.4,75,30.15,10.0,SW,3.5,-,N/A,,Clear,220,2014-01-13 13:35:00
8:55 AM,37.4,28.4,70,30.14,10.0,SSW,3.5,-,N/A,,Clear,210,2014-01-13 13:55:00
9:15 AM,37.4,28.4,70,30.14,10.0,SSW,4.6,-,N/A,,Clear,200,2014-01-13 14:15:00
9:35 AM,39.2,28.4,65,30.15,10.0,SSW,6.9,-,N/A,,Clear,210,2014-01-13 14:35:00
9:55 AM,41.0,28.4,61,30.15,10.0,WSW,5.8,-,N/A,,Clear,240,2014-01-13 14:55:00
10:15 AM,42.8,28.4,57,30.14,10.0,SSW,4.6,-,N/A,,Clear,200,2014-01-13 15:15:00
10:35 AM,42.8,28.4,57,30.13,10.0,SSW,5.8,-,N/A,,Clear,210,2014-01-13 15:35:00
10:55 AM,44.6,28.4,53,30.13,10.0,SSW,6.9,-,N/A,,Clear,200,2014-01-13 15:55:00
11:15 AM,44.6,28.4,53,30.12,10.0,SSW,5.8,-,N/A,,Clear,210,2014-01-13 16:15:00
11:35 AM,46.4,28.4,50,30.11,10.0,SSW,10.4,17.3,N/A,,Clear,200,2014-01-13 16:35:00
11:55 AM,46.4,28.4,50,30.09,10.0,South,8.1,-,N/A,,Clear,180,2014-01-13 16:55:00
12:15 PM,48.2,30.2,50,30.08,10.0,South,10.4,16.1,N/A,,Clear,180,2014-01-13 17:15:00
12:35 PM,48.2,28.4,46,30.07,10.0,SSW,8.1,-,N/A,,Clear,200,2014-01-13 17:35:00
12:55 PM,50.0,30.2,47,30.07,5.0,South,9.2,-,N/A,,Haze,190,2014-01-13 17:55:00
1:15 PM,51.8,30.2,44,30.06,10.0,SSW,9.2,-,N/A,,Clear,200,2014-01-13 18:15:00
1:35 PM,51.8,30.2,44,30.06,10.0,SSW,10.4,-,N/A,,Clear,200,2014-01-13 18:35:00
1:55 PM,51.8,30.2,44,30.06,10.0,SSW,11.5,16.1,N/A,,Clear,200,2014-01-13 18:55:00
2:15 PM,51.8,30.2,44,30.07,10.0,South,10.4,-,N/A,,Clear,190,2014-01-13 19:15:00
2:35 PM,51.8,30.2,44,30.07,10.0,South,10.4,19.6,N/A,,Clear,190,2014-01-13 19:35:00
2:55 PM,51.8,30.2,44,30.06,10.0,South,9.2,-,N/A,,Clear,190,2014-01-13 19:55:00
3:15 PM,50.0,32.0,50,30.06,10.0,SSW,6.9,20.7,N/A,,Clear,200,2014-01-13 20:15:00
3:35 PM,48.2,32.0,54,30.06,10.0,South,10.4,18.4,N/A,,Clear,190,2014-01-13 20:35:00
3:55 PM,46.4,32.0,57,30.04,10.0,South,9.2,18.4,N/A,,Clear,190,2014-01-13 20:55:00
4:15 PM,46.4,32.0,57,30.05,10.0,SSW,6.9,17.3,N/A,,Clear,200,2014-01-13 21:15:00
4:35 PM,46.4,32.0,57,30.04,10.0,South,11.5,-,N/A,,Clear,190,2014-01-13 21:35:00
4:55 PM,46.4,33.8,62,30.06,10.0,South,6.9,-,N/A,,Clear,190,2014-01-13 21:55:00
5:15 PM,46.4,35.6,66,30.06,10.0,SSW,9.2,-,N/A,,Clear,200,2014-01-13 22:15:00
5:35 PM,46.4,37.4,71,30.04,10.0,South,10.4,17.3,N/A,,Clear,190,2014-01-13 22:35:00
5:55 PM,46.4,39.2,76,30.05,10.0,South,11.5,16.1,N/A,,Clear,180,2014-01-13 22:55:00
6:15 PM,46.4,39.2,76,30.05,10.0,South,10.4,-,N/A,,Clear,190,2014-01-13 23:15:00
6:35 PM,46.4,41.0,81,30.06,10.0,South,8.1,-,N/A,,Clear,180,2014-01-13 23:35:00
6:55 PM,46.4,41.0,81,30.06,10.0,South,6.9,-,N/A,,Clear,180,2014-01-13 23:55:00
7:15 PM,46.4,42.8,87,30.06,10.0,South,5.8,-,N/A,,Clear,190,2014-01-14 00:15:00
7:35 PM,46.4,42.8,87,30.05,10.0,South,8.1,-,N/A,,Clear,190,2014-01-14 00:35:00
7:55 PM,48.2,42.8,82,30.04,10.0,South,9.2,16.1,N/A,,Clear,180,2014-01-14 00:55:00
8:15 PM,48.2,42.8,82,30.04,10.0,South,8.1,-,N/A,,Clear,170,2014-01-14 01:15:00
8:35 PM,48.2,42.8,82,30.02,10.0,South,9.2,-,N/A,,Clear,180,2014-01-14 01:35:00
8:55 PM,48.2,42.8,82,30.01,10.0,South,9.2,-,N/A,,Clear,170,2014-01-14 01:55:00
9:15 PM,48.2,44.6,87,30.00,10.0,South,11.5,-,N/A,,Clear,180,2014-01-14 02:15:00
9:35 PM,48.2,44.6,87,29.99,10.0,South,10.4,16.1,N/A,,Clear,170,2014-01-14 02:35:00
9:55 PM,48.2,44.6,87,29.98,10.0,South,9.2,-,N/A,,Clear,170,2014-01-14 02:55:00
10:15 PM,48.2,44.6,87,29.98,10.0,South,8.1,-,N/A,,Clear,180,2014-01-14 03:15:00
10:35 PM,48.2,44.6,87,29.97,10.0,South,10.4,16.1,N/A,,Clear,180,2014-01-14 03:35:00
10:55 PM,50.0,44.6,82,29.96,10.0,South,9.2,20.7,N/A,,Partly Cloudy,180,2014-01-14 03:55:00
11:15 PM,50.0,44.6,82,29.96,10.0,South,10.4,-,N/A,,Partly Cloudy,190,2014-01-14 04:15:00
11:35 PM,50.0,44.6,82,29.94,10.0,South,11.5,19.6,N/A,,Scattered Clouds,170,2014-01-14 04:35:00
11:55 PM,50.0,44.6,82,29.94,10.0,South,10.4,16.1,N/A,,Clear,180,2014-01-14 04:55:00